Regional Weather Roundup
Issued by NWS

Home | Current Version | Previous Version | Graphics & Text | Print | Product List | Glossary On
Versions: 1 2 3 4 5 6 7 8 9 10 11 12 13 14 15 16 17 18 19 20 21 22 23 24 25 26 27 28 29 30 31 32 33 34 35 36 37 38 39 40 41 42 43 44 45 46 47 48 49 50
000
ASUS43 KFSD 290202
RWRSD

WEATHER ROUNDUP FOR SOUTH DAKOTA
NATIONAL WEATHER SERVICE SIOUX FALLS SD
900 PM CDT SUN AUG 28 2016

NOTE: "FAIR" INDICATES FEW OR NO CLOUDS BELOW 12,000 FEET WITH NO
SIGNIFICANT WEATHER AND/OR OBSTRUCTIONS TO VISIBILITY.


SDZ001>005-009-010-012>017-290300-
NORTHWEST AND NORTH CENTRAL SOUTH DAKOTA

CITY           SKY/WX    TMP DP  RH WIND       PRES   REMARKS
BUFFALO          N/A     80  45  28 N13       29.96R
FAITH            N/A     82  48  30 SE13      29.99R
MOBRIDGE       CLEAR     75  53  46 E7        29.92R
$$

SDZ012>016-024>037-041>051-057-063-072>074-290300-
SOUTHWEST AND SOUTH CENTRAL SOUTH DAKOTA

CITY           SKY/WX    TMP DP  RH WIND       PRES   REMARKS
RAPID CTY ARPT CLEAR     73  50  44 NE14      30.01R
PIERRE         CLEAR     87  55  33 SE5       29.92R
CUSTER         CLEAR     71  32  23 VRB6      30.20R
ELLSWORTH AFB  CLEAR     82  45  26 NE10      30.01R
PHILIP         CLEAR     76  60  57 NE10      29.95R
PINE RIDGE     CLOUDY    77  48  35 S7        30.03R
WINNER         FAIR      79  64  60 S12       29.99R
$$

SDZ004>011-016>023-039-040-290300-
NORTHEAST SOUTH DAKOTA

CITY           SKY/WX    TMP DP  RH WIND       PRES   REMARKS
ABERDEEN       CLOUDY    85  67  54 S20G31    29.93S
WATERTOWN      CLEAR     78  70  76 S13       30.03R
BROOKINGS        N/A    N/A N/A N/A MISG        N/A
$$

SDZ017-020-022-023-036>040-048>070-290300-
SOUTHEAST SOUTH DAKOTA

CITY           SKY/WX    TMP DP  RH WIND       PRES   REMARKS
SIOUX FALLS    PTCLDY    82  70  66 S14       30.07R
HURON          CLEAR     82  66  58 S13G22    29.97R
CHAMBERLAIN    PTCLDY    81  65  58 SE9       29.98R
MITCHELL       PTCLDY    82  68  62 S12       30.01R
YANKTON        MOCLDY    81  70  69 SE9       30.05R
$$

ABBREVIATIONS USED IN REMARKS
   TC - TEMPERATURE IN CELSIUS
  WCI - WIND CHILL INDEX
   HX - HEAT INDEX
  VSB - VISIBILITY




USA.gov is the U.S. government's official web portal to all federal, state and local government web resources and services.